Location: Platte
(43.3870°N, 98.8440°W)
Time: 12:12:51
(UTC-05:00)

Cosmos 2034 Rocket - Pass Details

Date: 21 May 2018
Orbit: 958 x 1001 km, 82.9° (Epoch: 15 October)

Event Time Altitude Azimuth Distance (km) Brightness Sun altitude
Exits shadow 22:51:01 25° 147° (SSE) 1,850 4.8 -16.3°
Maximum altitude 22:54:15 45° 90° (E) 1,289 4.4 -16.7°
Drops below altitude 10° 23:00:03 10° 20° (NNE) 2,699 6.7 -17.3°
Sets 23:02:39 0° 14° (NNE) 3,651 7.6 -17.6°
